Weather History for LTCD - November, 2012

Change the Weather History Date:

Friday, November 16, 2012

  Actual Average Record
Temperature  
Mean Temperature 42 °F -  
Max Temperature 59 °F 46 °F - ()
Min Temperature 26 °F 29 °F - ()
Degree Days  
Heating Degree Days 22    
Moisture  
Dew Point 33 °F    
Average Humidity 80    
Maximum Humidity 100    
Minimum Humidity 24    
Precipitation  
Precipitation 0.00 in 0.05 in - ()
Sea Level Pressure  
Sea Level Pressure 30.29 in    
Wind  
Wind Speed 0 mph ()    
Max Wind Speed 2 mph    
Max Gust Speed -    
Visibility 2.4 miles    
Events Fog    
T = Trace of Precipitation, MM = Missing Value Source: Averaged Metar Reports

Daily Weather History Graph

Daily Weather History Graph

Search for Another Location

Airport or City:

Trip Planner

Search our weather history database for the weather conditions in past years. The results will help you decide how hot, cold, wet, or windy it might be!

Date:

Astronomy

Nov. 16, 2012 Rise Set
Actual Time 6:07 AM EET 4:05 PM EET
Civil Twilight 5:38 AM EET 4:34 PM EET
Nautical Twilight 5:06 AM EET 5:06 PM EET
Astronomical Twilight 4:34 AM EET 5:38 PM EET
Moon 8:41 AM EET (11/16) 6:40 PM EET (11/16)
Length of Visible Light 10h 55m
Length of Day
9h 57m
Waxing Crescent, 9% of the Moon is Illuminated
Nov 16
Waxing Crescent
Nov 20
First Quarter
Nov 28
Full
Dec 6
Last Quarter
Dec 13
New

Hourly Weather History & Observations

Time (EET) Temp. Dew Point Humidity Pressure Visibility Wind Dir Wind Speed Gust Speed Precip Events Conditions
12:50 AM 32.0 °F 32.0 °F 100% 30.27 in - Calm Calm - N/A   Mist
1:50 AM 30.2 °F 30.2 °F 100% 30.30 in 1.7 mi Calm Calm - N/A   Mist
2:00 AM 31 °F 31 °F 100%  in 2 mi Calm Calm - -   Mist
2:50 AM 28.4 °F 28.4 °F 100% 30.30 in 1.4 mi Calm Calm - N/A   Mist
3:50 AM 30.2 °F 30.2 °F 100% 30.30 in 1.2 mi Calm Calm - N/A   Mist
4:50 AM 26.6 °F 26.6 °F 100% 30.30 in 1.0 mi Calm Calm - N/A   Mist
5:50 AM 28.4 °F 28.4 °F 100% 30.30 in 1.2 mi Calm Calm - N/A   Mist
6:50 AM 28.4 °F 28.4 °F 100% 30.33 in 0.6 mi Calm Calm - N/A Fog Light Freezing Fog
7:50 AM 35.6 °F 35.6 °F 100% 30.33 in 2.2 mi Calm Calm - N/A   Mist
8:00 AM 36 °F 36 °F 100%  in 2 mi Calm Calm - -   Mist
8:50 AM 42.8 °F 39.2 °F 87% 30.33 in 3.7 mi Calm Calm - N/A   Unknown
9:50 AM 46.4 °F 37.4 °F 71% 30.33 in - Variable 1.2 mph - N/A   Clear
10:50 AM 50.0 °F 33.8 °F 54% 30.30 in - Variable 1.2 mph - N/A   Clear
11:50 AM 53.6 °F 33.8 °F 47% 30.30 in - Variable 1.2 mph - N/A   Clear
12:50 PM 57.2 °F 33.8 °F 41% 30.27 in - Calm Calm - N/A   Clear
1:50 PM 59.0 °F 32.0 °F 36% 30.27 in - Calm Calm - N/A   Clear
2:00 PM 58 °F 31 °F 24%  in 6 mi Calm Calm - -  
2:50 PM 59.0 °F 30.2 °F 34% 30.27 in - Calm Calm - N/A   Clear
3:50 PM 53.6 °F 35.6 °F 51% 30.24 in - WSW 2.3 mph - N/A   Clear
4:50 PM 46.4 °F 37.4 °F 71% 30.27 in - Calm Calm - N/A   Clear
5:50 PM 42.8 °F 37.4 °F 81% 30.27 in - Calm Calm - N/A   Clear
6:50 PM 41.0 °F 35.6 °F 81% 30.27 in - SE 1.2 mph - N/A   Clear
7:50 PM 37.4 °F 35.6 °F 93% 30.30 in - Calm Calm - N/A   Clear
8:00 PM 38 °F 35 °F 87%  in 6 mi Calm Calm - -  
8:50 PM 37.4 °F 35.6 °F 93% 30.30 in - Calm Calm - N/A   Clear
9:50 PM 35.6 °F 35.6 °F 100% 30.30 in - Calm Calm - N/A   Clear
10:50 PM 33.8 °F 33.8 °F 100% 30.30 in - Calm Calm - N/A   Clear
11:50 PM 33.8 °F 33.8 °F 100% 30.30 in - Calm Calm - N/A   Clear